Regional Weather Roundup
Issued by NWS

Home | Current Version | Previous Version | Text Only | Print | Product List | Glossary On
Versions: 1 2 3 4 5 6 7 8 9 10 11 12 13 14 15 16 17 18 19 20 21 22 23 24 25 26 27 28 29 30 31 32 33 34 35 36 37 38 39 40 41 42 43 44 45 46 47 48 49 50
000
ASCA44 KEWX 310520
RWRMX

LATIN AMERICA AND CARIBBEAN REGIONAL WEATHER ROUNDUP
NATIONAL WEATHER SERVICE AUSTIN/SAN ANTONIO TX
1200 AM CDT FRI JUL 31 2015

NOTE: "FAIR" INDICATED FEW OR NO CLOUDS BELOW 12,000 FEET WITH NO
SIGNIFICANT WEATHER AND/OR OBSTRUCTIONS TO VISIBILITY.

BAJA CALIFORNIA

CITY           SKY/WX    TMP DP  RH WIND       PRES   REMARKS
LA PAZ         CLEAR     86  70  58 S10       29.94R HX  90
MEXICALI       PTCLDY    97  59  28 N7        29.89R HX  96
S.J. DEL CABO  CLEAR     82  68  61 SW6       29.93S
TIJUANA        PTCLDY    68  61  77 CALM      30.06R

NORTHWESTERN MEXICO

CITY           SKY/WX    TMP DP  RH WIND       PRES   REMARKS
CULIACAN       CLOUDY    88  73  62 W5        29.90R HX  96
HERMOSILLO     MOCLDY    95  68  41 S5        29.94R HX  99
CD. JUAREZ       N/A    N/A N/A N/A MISG        N/A
LOS MOCHIS       N/A    N/A N/A N/A MISG        N/A

NORTHEASTERN MEXICO

CITY           SKY/WX    TMP DP  RH WIND       PRES   REMARKS
CHIHUAHUA      MOCLDY    72  63  73 S7        30.25R
MONTERREY      CLEAR     79  66  65 E6        30.06R
SALTILLO       CLEAR     73  59  60 N6        30.28R

WESTERN MEXICO

CITY           SKY/WX    TMP DP  RH WIND       PRES   REMARKS
AGUASCALIENTES PTCLDY    66  46  48 NE8       30.35R
DEL BAJIO      PTCLDY    64  52  63 W7        30.37R
GUADALAJARA    MOCLDY    66  61  82 E2        30.22R
MAZATLAN       CLOUDY    84  75  74 CALM      29.88R HX  92
P. VALLARTA    CLOUDY    81  75  83 S9G25     29.92R
ZACATECAS      CLEAR     64  46  52 CALM      30.39R

CENTRAL MEXICO

CITY           SKY/WX    TMP DP  RH WIND       PRES   REMARKS
MEXICO CITY    PTCLDY    64  50  59 NW9       30.41R
PUEBLA         PTCLDY    57  50  77 NW9       30.42R
QUERETARO      PTCLDY    57  52  82 E7        30.40R
S. LUIS POTOSI CLEAR     63  52  67 CALM      30.36R
TAMPICO          N/A    N/A N/A N/A MISG        N/A
TOLUCA         MOCLDY    57  52  82 CALM      30.49R

SOUTHERN MEXICO

CITY           SKY/WX    TMP DP  RH WIND       PRES   REMARKS
ACAPULCO       MOCLDY    86  81  84 SW6       29.93R HX 102
OAXACA         PTCLDY    68  46  45 NW6       30.34R
VERACRUZ       PTCLDY    81  77  89 NW5       30.05R

YUCATAN PENINSULA

CITY           SKY/WX    TMP DP  RH WIND       PRES   REMARKS
CAMPECHE       PTCLDY    75  73  94 W6        30.00F
CANCUN         PTCLDY    82  77  83 SE6       30.05F HX  91
CD. DEL CARMEN MOCLDY    82  73  74 NE6       30.01R
COZUMEL        CLEAR     72  72 100 CALM      30.04F
MERIDA         MOCLDY    77  70  78 CALM      30.02F
TAPACHULA      MOCLDY    75  72  88 CALM      29.99R

CENTRAL AMERICA

CITY           SKY/WX    TMP DP  RH WIND       PRES   REMARKS
MANAGUA        MOCLDY    77  70  78 SE5       29.92S

CARIBBEAN

CITY           SKY/WX    TMP DP  RH WIND       PRES   REMARKS
ARUBA          PTCLDY    82  77  83 E17       29.92F HX  91
CURACAO        PTCLDY    82  75  78 E10       29.94F
KINGSTON       PTCLDY    84  73  70 SE10      30.00S HX  91
NASSAU         MOCLDY    84  75  74 S3        30.08S HX  92
SAN JUAN       PTCLDY    81  75  83 E6        30.05F
SANTO DOMINGO  PTCLDY    77  73  88 NE5       30.03S
ST. CROIX      PTCLDY    81  73  78 E10       30.04F
ST. THOMAS     CLEAR     82  73  74 E9        30.04F

$$



USA.gov is the U.S. government's official web portal to all federal, state and local government web resources and services.